Location: Cazarilh
(42.9578°N, 0.5819°E)
Time: 19:08:01
(UTC+00:00)

Cosmos 1346 Rocket - Pass Details

Date: 11 December 2019
Orbit: 524 x 555 km, 81.2° (Epoch: 27 January)

Event Time Altitude Azimuth Distance (km) Brightness Sun altitude
Rises 05:35:49 0° 190° (S) 2,642 6.4 -18.0°
Reaches altitude 10° 05:37:57 10° 191° (S) 1,759 5.4 -17.7°
Maximum altitude 05:41:49 83° 278° (W) 535 2.6 -17.0°
Drops below altitude 10° 05:45:44 10° 9° (N) 1,779 5.3 -16.3°
Sets 05:47:54 0° 10° (N) 2,677 6.3 -15.9°
